Погода на Острове Надежды

Норвегия     76°35′22″N   25°10′58″E
темп.,
°C
ветер,
м/с
пор.,
м/с
влажн.,
%
обл.,
%
осадки,
мм/ч
давл.,
гПа
погр.,
м
4 марта, чт
чт401:00−10ссв101292100 0.3 1015587
04:00−12ссв91193100 0.1 1016538
07:00−13ссв91196100 0.1 1016431
10:00−14ссв81097100 0.1 1017414
13:00−15ссв7997100 0.1 1017412
16:00−16ссв7999100 0.1 1018369
19:00−16ссв679599 0.1 1017393
22:00−16с569276 0.0 1016397
5 марта, пт
пт501:00−16ссв459174 0.0 1015402
04:00−16ссв3389100 0.0 1014381
07:00−15в228596 0.0 1012329
10:00−13юв348191 0.0 1009465
13:00−11юв577895 0.0 1006690
16:00−10юв71080100 0.0 1003706
19:00−9юв101291100 0.3 1001808
22:00−8юв111492100 0.9 1000885
6 марта, сб
сб601:00−7юв111492100 1.7 999851
04:00−6вюв101480100 0.3 999866
07:00−6вюв101492100 0.4 1000710
10:00−7в101469100 0.1 1005776
13:00−8всв10137280 0.1 1008726
16:00−12св10139353 0.0 1011571
19:00−15ссв9129777 0.1 1012418
22:00−16ссв811100100 0.0 1014332
7 марта, вс
вс701:00−17ссв79100100 0.1 1015311
04:00−17с68100100 0.1 1015306
07:00−17ссв5799100 0.1 1015324
10:00−16с5597100 0.0 1016330
13:00−16ссв4494100 0.1 1015315
16:00−15ссв3393100 0.0 1015216
19:00−15св2291100 0.0 1013181
22:00−13всв2388100 0.0 1012275
8 марта, пн
пн801:00−12всв3485100 0.0 1009329
04:00−11всв4486100 0.1 1007389
07:00−11св4586100 0.1 1005271
10:00−12ссв458797 0.0 1005225
13:00−11ссв338495 0.0 1005287
16:00−11всв2283100 0.0 1003268
19:00−10юв2383100 0.0 1001286
22:00−10в2392100 0.2 999243